This is the latest recevied weather packets stored in our database for station/object DB8NZ-22. If no packets are shown the sender has not sent any weather packets the latest 10 day(s).
| Time | Temp. | Humidity | Pressure | Rain* | Wind** | Luminosity | Snow |
|---|---|---|---|---|---|---|---|
| 1777523383 | 5° C | 38% | 1029.9 hPa | - | - | - | - |
| 1777522482 | 5° C | 38% | 1029.8 hPa | - | - | - | - |
| 1777521582 | 5.56° C | 37% | 1029.5 hPa | - | - | - | - |
| 1777520682 | 5.56° C | 36% | 1029.5 hPa | - | - | - | - |
| 1777519782 | 6.11° C | 36% | 1029.5 hPa | - | - | - | - |
| 1777518882 | 6.11° C | 36% | 1029.4 hPa | - | - | - | - |
| 1777516182 | 6.11° C | 36% | 1029.4 hPa | - | - | - | - |
| 1777515282 | 6.67° C | 35% | 1029.2 hPa | - | - | - | - |
| 1777514382 | 6.67° C | 35% | 1029.3 hPa | - | - | - | - |
| 1777513482 | 6.67° C | 35% | 1029.3 hPa | - | - | - | - |
| 1777512581 | 7.22° C | 35% | 1029.2 hPa | - | - | - | - |
| 1777511681 | 7.22° C | 35% | 1029 hPa | - | - | - | - |
| 1777510781 | 7.78° C | 34% | 1029.1 hPa | - | - | - | - |
| 1777509881 | 7.78° C | 34% | 1029.2 hPa | - | - | - | - |
| 1777508981 | 7.78° C | 34% | 1029.1 hPa | - | - | - | - |
| 1777508081 | 7.78° C | 34% | 1028.9 hPa | - | - | - | - |
| 1777507181 | 8.33° C | 34% | 1028.9 hPa | - | - | - | - |
| 1777506280 | 8.33° C | 34% | 1028.8 hPa | - | - | - | - |
| 1777505381 | 8.33° C | 33% | 1028.6 hPa | - | - | - | - |
| 1777504480 | 8.89° C | 33% | 1028.4 hPa | - | - | - | - |
| 1777503580 | 9.44° C | 32% | 1028.5 hPa | - | - | - | - |
| 1777502680 | 9.44° C | 31% | 1028.4 hPa | - | - | - | - |
| 1777501780 | 10° C | 31% | 1028.2 hPa | - | - | - | - |
| 1777500880 | 10° C | 30% | 1028 hPa | - | - | - | - |
| 1777499980 | 10.56° C | 30% | 1028 hPa | - | - | - | - |
* Rain since midnight (hover to see other rain measurements)
** Current wind speed in m/s (hover to see current wind gust speed)